AirNav   Air Wisconsin pilot careers
 
 1652 users online  

MS9
(formerly 1MS6)
Eagles Ridge Airport
Hernando, Mississippi, USA

GOING TO HERNANDO?


FAA INFORMATION EFFECTIVE 13 SEPTEMBER 2018

Location

FAA Identifier: MS9
Lat/Long: 34-47-47.1500N / 089-54-47.6000W
34-47.785833N / 089-54.793333W
34.7964306 / -89.9132222
(estimated)
Elevation: 262 ft. / 80 m (estimated)
Variation: 02E (1985)
From city: 5 miles SE of HERNANDO, MS
Time zone: UTC -5 (UTC -6 during Standard Time)
Zip code: 38632

Airport Operations

Airport use: Open to the public
Activation date: 02/1988
Control tower: no
ARTCC: MEMPHIS CENTER
FSS: GREENWOOD FLIGHT SERVICE STATION
NOTAMs facility: GWO (NOTAM-D service available)
Attendance: UNATNDD
Segmented circle: no

Airport Communications

CTAF: 122.9
WX AWOS-3 at OLV (13 nm NE): 119.925 (662-893-5906)
WX ASOS at MEM (15 nm N): 127.75 (901-332-3679)

Nearby radio navigation aids

VOR radial/distance  VOR name  Freq  Var
MEMr164/13.6MEMPHIS VORTAC117.5001E
HLIr271/20.6HOLLY SPRINGS VORTAC112.4003E
UJMr070/39.8MARVELL VOR/DME109.6001E

Airport Services

Fuel available: 100 JET-A
Parking: hangars

Runway Information

Runway 10/28

Dimensions: 3300 x 40 ft. / 1006 x 12 m
Surface: concrete, in good condition
RUNWAY 10  RUNWAY 28
Latitude: 34-47.856667N34-47.715000N
Longitude: 089-55.111667W089-54.475000W
Elevation: 262.0 ft.262.0 ft.
Traffic pattern: right
TOWER .7NM NORTH 311' AGL. RIGHT HAND TRAFFIC LNDG RWY 10. DISPLACED THRESHOLD 922' 2738' REMAINING.
left
Runway heading: 103 magnetic, 105 true283 magnetic, 285 true
Displaced threshold: 922 ft.no
Obstructions: treesnone

Airport Ownership and Management from official FAA records

Ownership: Privately-owned
Owner: HOMER SKELTON ENTERPRISE INC.
4225 SPRING MEADOW WAY NORTH
OLVIE BRANCH, MS 38654
Phone 901-354-4478
Manager: TOM FERGUSON
4332 MALONE RD
HERNANDO, MS 38632
Phone (901) 649-0750

Airport Operational Statistics

Aircraft based on the field: 12
Single engine airplanes: 5
Multi engine airplanes: 7
    
Aircraft operations: avg 42/week *
67% local general aviation
33% transient general aviation
* for 12-month period ending 07 December 2017

Additional Remarks

FUEL AVAIL 24/7 WITH CC SERVICE. FOR SERVICE CALL 901 649 0750 OR 901 387 9890
MIGRATORY WATERFOWL AREA .2NM SOUTHEAST OF AP.
RECOMMENDED ALL AIRCRAFT LAND RWY 28 TAKEOFF RWY 10.

Instrument Procedures

There are no published instrument procedures at MS9.

Some nearby airports with instrument procedures:

KOLV - Olive Branch Airport (13 nm NE)
KMEM - Memphis International Airport (15 nm N)
M41 - Holly Springs-Marshall County Airport (19 nm E)
KUTA - Tunica Municipal Airport (22 nm W)
M01 - General Dewitt Spain Airport (25 nm N)
 
Loc | Ops | Rwys | IFR | FBO | Links
Com | Nav | Svcs | Stats | Notes


 
Area around MS9 (Eagles Ridge Airport)
 
Road maps at: MapQuest Bing Google
 
Aerial photo
No photo
 
Sectional chart

 
Airport distance calculator
Flying to Eagles Ridge Airport? Find the distance to fly.

From to MS9

Sunrise and sunset
Times for 19-Sep-2018
 Local
(UTC-5)
 Zulu
(UTC)
Morning civil twilight06:2111:21
Sunrise06:4611:46
Sunset19:0000:00
Evening civil twilight19:2600:26

Current date and time
Zulu (UTC)  19-Sep-2018 19:12:59
Local (UTC-5)  19-Sep-2018 14:12:59
 
METAR
KOLV 
13nm NE 
191850Z 18004KT 10SM SCT055 35/19 A2998
KMEM 
17nm N 
191854Z VRB03KT 10SM FEW050 34/22 A2998 RMK AO2 SLP148 T03390217
KUTA 
22nm W 
191855Z AUTO 00000KT 10SM 33/19 A2998 RMK AO2 TSNO
KAWM 
26nm NW 
191753Z AUTO 18004KT 10SM CLR 35/21 A2998 RMK AO2 SLP148 T03500211 10350 20228 58006 $
TAF
KMEM 
17nm N 
191735Z 1918/2024 17005KT P6SM FEW050 FM200000 VRB03KT P6SM SKC FM201400 18005KT P6SM SKC FM201800 18008KT P6SM FEW050
NOTAMs
Click for the latest NOTAMs
NOTAMs are issued by the DoD/FAA and will open in a separate window not controlled by AirNav.

 

 
 

Would you like to see your business listed on this page?

 If your business provides an interesting product or service to pilots, flight crews, aircraft, or users of the Eagles Ridge Airport, you should consider listing it here.  To start the listing process, click on the button below
 
Add a business
 

Other Pages about Eagles Ridge Airport

Update a link
 
Copyright © AirNav, LLC. All rights reserved. Privacy Policy  Contact